Presure
120 129 125 128 113 107 126 128 124 137 139 117 111 116 128 125 119 140 122 131 151 134 154 111 126 204 150 154 119 153 118 138 207 221 376 376 105 390 397 237 92 200 178 129 193
118 176 128 125 134 126 121 132 119 119 123 122 133 126 126 125 105 123 121 144 152 121 152 145 151 137 151 135 168 109 173 173 136 258 259 371 251 410 421 255 241 214 169 151 166
136 126 119 130 133 117 129 126 114 126 127 129 126 139 126 127 117 119 127 132 134 125 137 140 151 117 193 166 159 124 165 151 197 264 282 372 381 406 367 188 125 119 190 198 190
134 122 134 135 121 125 112 131 125 122 120 114 121 123 124 126 123 106 132 123 121 139 150 137 126 151 133 121 140 131 196 182 226 244 274 378 374 404 405 98 243 247 197 205 102
152 137 135 131 124 124 127 125 124 118 118 125 115 125 106 115 115 125 109 126 130 125 141 147 156 152 150 135 171 145 146 153 164 229 258 332 368 389 393 286 243 234 203 174 193
161 134 135 119 144 120 135 126 133 120 129 122 130 118 114 115 120 113 125 125 128 124 121 122 143 153 123 142 219 156 220 143 177 223 219 277 371 381 380 285 244 233 234 167 191
145 142 148 182 166 135 131 131 128 131 111 127 122 125 117 112 116 117 115 129 124 132 102 140 112 140 153 140 138 162 196 170 132 240 228 253 361 371 386 318 81 104 79 184 129
173 194 185 170 127 131 150 139 139 140 134 130 127 123 120 121 122 116 119 123 138 125 134 127 147 132 153 147 162 183 162 199 132 216 232 237 267 378 387 313 255 80 238 175 116
170 179 184 199 157 163 170 169 160 145 160 126 138 141 135 131 125 140 133 121 124 125 126 138 155 134 127 149 159 214 137 110 190 145 210 230 248 401 384 337 260 244 245 88 193
172 201 162 189 186 196 196 159 157 176 197 169 176 160 176 133 132 141 188 186 175 166 196 203 201 181 149 192 198 199 118 155 145 201 174 224 244 261 408 380 269 246 246 88 198
196 199 202 205 203 171 201 195 186 177 171 202 168 169 186 162 168 165 168 160 165 179 174 175 178 199 206 206 160 158 158 197 156 227 219 214 231 242 312 416 304 257 242 235 228
178 179 179 187 188 184 192 189 191 202 198 206 200 201 205 174 171 172 172 185 193 193 215 200 207 195 192 203 181 164 135 210 241 139 185 226 216 237 247 414 376 258 250 225 243
147 151 176 191 190 195 192 188 190 194 205 175 199 201 198 204 199 205 201 199 201 194 208 196 202 212 218 198 202 207 169 193 161 148 186 233 190 227 239 346 438 291 244 228 245
177 181 184 194 189 185 185 202 184 155 205 178 192 189 188 192 192 196 199 194 195 167 203 211 203 215 207 217 208 203 135 204 197 159 206 176 205 222 232 256 413 452 260 217 249
188 173 182 188 187 186 189 185 194 137 206 194 195 197 200 197 154 206 195 199 197 197 162 196 203 204 203 203 207 141 223 128 202 206 168 220 219 207 228 240 409 426 297 209 213
176 180 176 183 193 191 194 191 197 201 205 202 204 200 211 216 202 224 209 204 217 220 230 203 209 203 202 196 199 205 214 221 207 154 198 143 217 207 230 229 257 415 346 213 223
193 192 191 205 206 202 204 194 199 199 199 216 216 195 202 209 202 217 212 207 229 223 216 226 235 220 228 220 200 198 175 218 215 207 168 146 197 186 211 227 243 414 419 213 222
183 193 195 202 198 196 198 201 205 202 196 205 207 206 192 213 209 207 199 204 205 200 206 217 214 218 226 230 198 218 209 208 223 212 186 184 205 199 215 210 232 286 435 210 195
200 198 194 195 195 199 200 201 201 205 211 211 207 225 223 217 220 213 212 203 212 224 227 210 216 206 212 216 217 213 222 218 213 218 157 138 140 193 184 203 219 234 389 318 212
196 197 191 198 204 203 208 211 212 226 236 243 243 247 247 245 244 251 257 257 243 221 220 218 213 208 206 211 207 213 214 213 213 214 210 210 130 181 196 202 217 217 259 412 190
227 229 250 232 232 234 236 238 225 230 227 224 226 234 239 149 223 230 251 243 244 240 251 256 247 241 227 203 213 218 202 205 215 214 207 213 196 209 183 207 191 224 218 280 301
233 236 239 235 234 254 251 231 228 228 232 229 249 251 256 247 258 255 255 240 155 248 229 251 275 224 246 259 235 229 226 220 207 211 216 180 207 136 188 204 190 167 212 221 256
243 243 214 246 241 241 241 235 242 249 254 256 260 259 252 244 255 257 253 265 256 256 261 252 286 280 237 259 248 244 249 258 250 244 217 181 211 199 191 185 210 215 217 209 221
225 227 241 238 254 239 252 261 258 249 258 270 277 265 261 268 275 287 298 283 273 281 277 260 278 282 281 259 232 240 254 258 231 261 260 266 212 165 127 187 187 188 199 211 206
235 248 218 274 252 245 234 310 309 312 298 298 304 308 307 306 307 302 321 318 303 292 291 269 278 287 264 258 270 252 274 235 239 264 239 265 239 229 190 131 188 155 197 206 198
281 269 332 320 145 329 337 310 311 308 305 305 310 309 309 308 304 313 313 321 258 306 295 278 282 284 295 268 282 286 293 260 255 250 248 233 269 143 233 215 223 146 183 184 202
304 315 328 319 302 294 293 307 312 314 321 343 358 355 338 332 324 302 322 302 312 306 306 316 300 291 285 291 285 282 270 263 255 245 248 251 233 256 233 173 207 129 193 221 196
Wind_Speed
25 22 24 23 26 22 23 23 25 20 23 29 30 29 20 22 25 24 27 25 31 26 29 30 30 39 29 30 34 32 34 36 53 54 32 30 38 34 60 97 40 76 67 48 69
26 23 26 27 24 29 32 24 33 30 28 28 24 25 25 26 31 26 28 29 34 26 33 30 32 32 27 40 45 34 40 48 31 66 49 28 16 33 51 106 96 80 64 56 57
27 29 31 30 27 35 28 31 35 29 28 27 28 28 28 28 34 32 27 25 27 30 27 29 33 31 51 44 28 42 33 37 51 72 75 27 22 27 42 74 46 28 71 71 66
31 34 33 33 35 34 36 32 34 36 37 35 33 32 33 31 32 32 29 30 31 31 40 33 35 39 33 31 34 43 59 42 61 66 74 23 21 20 45 24 94 97 76 70 31
30 35 36 36 38 38 37 38 39 40 39 38 39 35 38 37 36 34 37 33 34 34 37 40 45 42 39 36 52 31 38 33 41 57 70 44 19 20 46 96 96 94 76 62 72
34 39 40 44 42 41 41 42 42 43 42 43 41 43 43 41 40 41 38 38 38 38 38 38 39 45 41 33 48 32 41 42 42 54 49 71 22 22 50 96 99 95 93 69 76
45 45 43 40 43 45 45 46 46 46 43 46 47 46 47 47 45 44 44 41 42 41 36 42 45 37 46 44 31 38 47 39 37 54 53 63 21 30 50 90 26 33 23 76 47
43 37 41 47 48 49 52 51 51 52 51 50 51 52 49 48 47 46 46 46 49 44 43 43 47 39 47 38 42 48 33 50 42 46 51 54 67 34 45 90 102 27 96 69 40
44 45 44 41 54 53 53 54 58 57 50 56 58 59 56 55 52 54 51 50 49 47 47 46 55 40 36 42 43 52 34 31 47 40 46 49 60 33 46 87 101 95 100 32 82
52 51 54 44 45 46 47 61 63 58 48 62 61 63 55 57 56 58 54 56 64 59 58 57 57 55 52 50 54 50 41 38 35 38 36 45 55 63 39 73 100 96 98 38 79
51 50 50 49 48 62 49 50 55 61 67 52 69 70 64 70 68 68 67 63 65 66 65 65 64 60 56 54 41 42 43 47 26 35 36 38 45 53 39 49 97 104 92 92 85
51 53 54 52 53 53 56 54 55 51 50 59 61 61 60 72 73 70 70 67 64 65 59 62 61 62 62 55 49 44 41 46 50 39 38 33 35 44 49 28 73 104 97 79 92
58 57 59 60 58 57 57 60 60 60 50 67 68 67 65 61 63 63 63 63 64 67 61 66 63 61 62 61 58 51 43 44 34 26 42 38 30 36 44 21 33 99 98 81 90
62 63 66 71 65 64 63 68 64 70 56 67 67 77 78 71 71 69 68 70 70 76 66 65 67 62 63 62 60 58 50 48 46 33 29 24 29 33 39 52 23 35 100 81 97
73 70 71 71 73 72 73 68 74 68 65 67 73 76 77 79 76 78 78 76 76 75 72 72 67 66 66 63 61 51 59 50 49 37 46 28 28 25 38 41 16 24 104 76 74
77 77 76 78 82 83 82 80 82 81 76 78 79 77 81 82 77 81 81 76 75 74 75 79 75 72 71 69 65 61 59 57 49 36 32 34 25 25 38 33 47 15 82 78 74
92 89 80 86 86 88 87 88 89 85 88 89 90 80 79 83 81 81 78 76 78 75 72 70 72 74 71 72 69 65 60 59 52 52 46 35 39 27 21 29 38 12 16 79 76
92 93 94 90 93 94 94 95 93 93 90 94 92 90 82 97 91 87 82 79 81 85 80 72 70 71 69 68 67 66 65 63 53 54 48 39 21 22 18 18 24 28 9 78 74
93 97 98 97 97 100 101 100 100 103 105 101 97 112 108 105 107 97 94 84 90 100 97 82 74 78 76 72 68 67 63 64 59 56 49 48 39 31 31 20 13 20 10 42 81
102 105 100 108 111 111 113 115 111 117 114 112 112 107 105 102 102 97 92 91 96 104 104 96 87 82 79 76 76 75 68 65 65 59 53 55 52 44 31 22 16 14 12 9 71
98 97 84 99 98 100 102 101 106 109 109 109 110 110 107 75 98 94 93 93 91 94 97 95 97 92 91 80 82 80 75 71 71 66 59 52 57 49 43 32 31 17 19 13 60
84 87 87 81 88 91 94 107 109 108 110 114 107 106 106 106 102 101 98 99 77 96 95 93 95 89 84 87 96 90 85 81 74 72 64 56 58 61 47 37 40 43 30 25 22
84 91 106 98 97 100 99 101 101 104 106 110 114 108 106 105 108 104 99 101 100 97 94 95 98 86 83 81 80 77 77 80 92 84 68 63 58 60 54 53 41 36 32 39 31
89 92 100 105 109 107 110 108 111 115 116 120 122 118 116 118 120 114 110 107 105 104 104 102 101 87 76 83 86 79 76 73 71 64 60 65 68 69 61 55 51 52 47 42 45
100 107 99 104 106 110 111 108 109 112 111 111 109 111 114 112 109 111 109 105 102 100 100 103 101 93 80 80 79 82 76 74 70 63 61 62 64 75 70 60 58 57 57 49 53
105 97 89 88 72 99 103 97 99 101 101 98 103 101 106 107 106 99 103 95 80 96 100 102 101 96 91 79 79 75 71 75 68 66 65 64 63 70 86 68 67 63 63 58 56
95 91 90 84 89 94 98 101 101 107 105 109 112 113 109 112 110 109 98 94 93 91 91 95 100 97 85 83 80 83 56 68 70 71 69 63 67 83 84 66 66 55 70 59 61
Wind_Direction
230 229 223 222 232 237 228 237 233 266 258 236 239 238 248 245 248 277 258 267 286 272 285 255 268 298 270 279 265 283 265 279 313 322 313 286 263 239 215 214 254 234 234 251 224
245 257 237 234 244 230 231 245 226 234 236 239 255 243 243 247 241 253 265 286 292 258 289 283 289 267 280 268 296 264 308 298 284 336 324 290 272 247 213 214 218 220 231 238 220
249 241 249 245 247 242 245 242 241 245 246 247 246 267 246 250 246 250 255 267 270 267 272 276 290 268 300 303 282 273 300 296 315 341 346 289 282 245 211 221 236 219 219 217 226
249 245 255 254 244 247 256 247 242 240 239 239 243 241 242 248 250 253 271 259 255 283 294 277 265 294 266 272 267 274 312 318 327 336 348 290 279 237 206 233 213 210 219 216 232
266 256 253 248 244 245 250 248 247 246 245 248 245 246 249 246 252 258 254 263 267 259 286 285 293 294 291 264 304 280 288 301 305 331 348 342 264 220 200 202 210 213 215 212 212
276 257 257 248 263 250 257 248 256 247 254 247 258 244 246 246 249 251 259 259 263 261 254 256 281 293 266 289 315 294 331 284 314 330 336 353 255 215 203 202 210 212 211 223 213
266 263 267 285 275 261 257 256 253 259 257 254 249 250 248 252 251 257 258 265 260 272 269 282 268 276 294 277 263 302 308 311 286 347 338 352 298 223 208 196 234 220 222 215 246
282 294 287 279 255 259 269 264 266 266 263 258 255 253 252 252 255 257 257 261 275 263 274 265 284 272 290 289 285 301 289 309 288 331 341 345 355 227 213 198 208 241 211 212 222
283 286 284 297 267 271 275 272 269 264 264 256 263 266 263 264 258 266 265 262 262 261 265 276 280 278 260 285 282 308 270 271 310 293 325 343 357 240 219 201 209 212 210 241 222
281 303 272 288 283 295 290 268 267 275 278 270 272 270 270 262 262 270 279 279 279 276 285 289 289 284 281 293 297 300 271 296 283 321 309 338 354 356 232 211 210 216 211 248 216
303 305 305 303 298 272 293 283 275 269 272 282 271 271 272 271 272 273 274 273 277 278 279 281 283 287 290 292 275 288 289 305 298 339 330 330 350 355 344 227 207 214 216 213 215
286 283 278 285 282 282 285 278 278 291 292 294 284 281 280 272 275 275 275 275 274 276 286 280 284 281 283 287 282 284 268 304 315 277 309 337 337 349 352 245 215 212 216 217 214
277 283 288 292 287 290 284 278 278 281 290 277 288 284 278 280 280 279 277 276 278 273 283 276 280 286 287 282 284 288 284 291 279 275 300 335 310 342 346 317 237 210 216 214 215
282 288 292 296 289 282 278 290 275 274 289 269 278 276 273 273 272 273 274 270 273 274 278 283 279 286 283 287 285 282 262 288 290 284 299 296 313 331 343 348 250 236 212 208 211
292 279 286 290 287 287 286 278 288 274 290 279 277 278 280 279 276 283 275 276 274 273 276 271 274 277 278 280 282 261 289 258 284 286 283 310 320 311 336 346 289 248 207 201 201
287 288 283 288 290 289 289 286 289 289 290 283 280 279 286 286 278 286 278 279 278 279 276 276 275 274 274 276 277 279 283 284 282 263 275 259 306 306 328 339 344 264 208 200 202
294 292 286 290 288 288 287 287 288 288 284 286 284 275 283 286 279 281 278 277 280 277 276 277 275 273 273 272 272 274 269 279 278 281 270 256 286 276 312 329 343 338 244 203 202
291 291 290 288 287 287 287 288 289 283 279 283 282 281 274 286 279 276 271 274 273 270 269 270 270 271 270 267 270 271 272 273 274 275 269 262 259 261 305 299 340 343 281 210 219
293 293 292 291 289 288 287 288 287 285 285 285 282 286 284 283 282 279 278 269 275 280 279 264 265 262 267 267 265 265 266 267 270 270 257 248 247 254 262 267 302 338 345 216 211
289 289 288 288 286 286 286 285 285 286 285 283 283 282 279 277 277 274 273 272 270 272 273 271 264 259 261 263 264 263 263 264 264 264 266 269 250 261 243 245 270 244 314 310 223
289 287 291 285 284 284 285 284 285 285 285 284 284 283 281 267 278 277 276 275 272 269 269 269 268 267 265 260 260 264 263 262 263 262 259 261 263 258 250 245 238 257 218 256 220
293 292 293 291 293 291 286 280 282 282 279 279 277 278 279 277 279 278 277 275 267 272 268 269 267 265 264 264 265 267 265 259 256 256 256 250 258 245 242 234 236 247 222 218 238
300 298 285 298 291 288 286 282 285 285 285 283 282 281 279 276 278 276 274 275 273 272 272 268 270 263 263 263 262 260 259 260 260 260 252 248 243 250 237 242 224 218 226 219 222
295 295 301 298 296 289 289 288 285 286 284 280 278 279 278 278 277 274 272 270 270 269 268 269 269 267 261 257 259 259 260 258 261 256 254 241 241 247 256 235 236 234 233 224 222
303 298 290 291 292 291 291 283 281 279 276 275 273 272 270 269 268 268 267 264 263 264 263 265 265 265 255 254 257 255 258 258 257 252 254 240 238 246 244 248 229 233 226 229 227
299 298 292 291 288 287 285 283 282 280 278 275 274 271 271 270 266 262 265 263 256 258 258 260 262 261 260 257 260 257 253 252 252 249 246 243 234 244 241 239 237 239 239 238 230
304 298 301 302 295 290 287 287 285 283 279 280 276 274 270 268 267 266 260 256 257 254 255 255 256 258 256 256 252 246 247 248 246 247 244 242 237 237 238 231 235 250 232 231 236